Location: Unspecified
(48.7670°N, 0.0000°E)
Time: 16:40:38
(UTC+00:00)

deb Explorer IX - All Passes

Search period start: 19 June 2019 00:00
Search period end: 29 June 2019 00:00
Orbit: 537 x 1115 km, 38.8° (Epoch: 19 June)

Date Brightness Start Highest point End Pass type
(mag) Time Alt. Az. Time Alt. Az. Time Alt. Az.
19 Jun - 14:27:56 10° SSW 14:33:25 23° SSE 14:38:50 10° ESE daylight
19 Jun - 16:13:20 10° SW 16:19:55 36° S 16:26:08 10° ESE daylight
19 Jun - 18:00:11 10° WSW 18:06:33 34° SSW 18:12:21 10° SE daylight
19 Jun - 19:48:11 10° WSW 19:52:43 19° SSW 19:56:55 10° SSE daylight
20 Jun - 14:05:57 10° SSW 14:11:27 23° SSE 14:16:57 10° ESE daylight
20 Jun - 15:51:21 10° SW 15:57:57 36° S 16:04:17 10° ESE daylight
20 Jun - 17:38:11 10° WSW 17:44:36 34° SSW 17:50:33 10° SE daylight
20 Jun - 19:26:09 10° WSW 19:30:50 19° SSW 19:35:09 10° SSE daylight
21 Jun - 13:43:59 10° SSW 13:49:29 24° SSE 13:55:03 10° ESE daylight
21 Jun - 15:29:23 10° SW 15:35:59 36° S 15:42:25 10° ESE daylight
21 Jun - 17:16:11 10° WSW 17:22:40 34° SSW 17:28:44 10° SE daylight
21 Jun - 19:04:07 10° WSW 19:08:54 19° SSW 19:13:22 10° SSE daylight
22 Jun - 13:22:03 10° SSW 13:27:32 24° SSE 13:33:08 10° ESE daylight
22 Jun - 15:07:26 10° SW 15:14:01 37° S 15:20:32 10° ESE daylight
22 Jun - 16:54:11 10° WSW 17:00:42 35° SSW 17:06:54 10° SE daylight
22 Jun - 18:42:07 10° WSW 18:46:59 20° SSW 18:51:33 10° SSE daylight
23 Jun - 13:00:08 10° SSW 13:05:34 24° SSE 13:11:11 10° ESE daylight
23 Jun - 14:45:29 10° WSW 14:52:02 37° S 14:58:37 10° ESE daylight
23 Jun - 16:32:13 10° WSW 16:38:44 35° SSW 16:45:01 10° SE daylight
23 Jun - 18:20:07 10° WSW 18:25:02 20° SSW 18:29:42 10° SSE daylight
24 Jun - 12:38:14 10° SSW 12:43:36 24° SSE 12:49:12 10° ESE daylight
24 Jun - 14:23:34 10° WSW 14:30:04 37° S 14:36:40 10° ESE daylight
24 Jun - 16:10:15 10° WSW 16:16:46 35° SSW 16:23:07 10° SE daylight
24 Jun - 17:58:07 10° WSW 18:03:05 20° SSW 18:07:51 10° SSE daylight
25 Jun - 12:16:22 10° SSW 12:21:39 24° SSE 12:27:13 10° ESE daylight
25 Jun - 14:01:39 10° WSW 14:08:05 37° S 14:14:44 10° ESE daylight
25 Jun - 15:48:18 10° WSW 15:54:47 35° SSW 16:01:11 10° SE daylight
25 Jun - 17:36:08 10° WSW 17:41:07 20° SSW 17:45:56 10° SSE daylight
26 Jun - 11:54:30 10° SSW 11:59:40 24° SSE 12:05:12 10° ESE daylight
26 Jun - 13:39:46 10° WSW 13:46:06 37° S 13:52:44 10° ESE daylight
26 Jun - 15:26:22 10° WSW 15:32:48 34° SSW 15:39:15 10° SE daylight
26 Jun - 17:14:11 10° WSW 17:19:08 20° SSW 17:24:00 10° SSE daylight
27 Jun - 11:32:40 10° SSW 11:37:44 24° SSE 11:43:10 10° ESE daylight
27 Jun - 13:17:54 10° WSW 13:24:07 37° S 13:30:44 10° ESE daylight
27 Jun - 15:04:27 10° WSW 15:10:48 34° SSW 15:17:17 10° SE daylight
27 Jun - 16:52:14 10° WSW 16:57:10 19° SSW 17:02:02 10° SSE daylight
28 Jun - 11:10:51 10° SSW 11:15:47 23° SSE 11:21:08 10° ESE daylight
28 Jun - 12:56:03 10° WSW 13:02:09 36° S 13:08:43 10° ESE daylight
28 Jun - 14:42:34 10° WSW 14:48:49 34° SSW 14:55:17 10° SE daylight
28 Jun - 16:30:18 10° WSW 16:35:11 19° SSW 16:40:02 10° SSE daylight
